Miscellaneous Local Product
Issued by NWS Hastings, NE

Home | Current Version | Previous Version | Text Only | Print | Product List | Glossary Off
Versions: 1 2 3 4 5 6 7 8 9 10 11 12 13 14 15 16 17 18 19 20 21 22 23 24 25 26 27 28 29 30 31 32 33 34 35 36 37 38 39 40 41 42 43 44 45 46 47 48 49 50

000
AXUS43 KGID 272302
MISGRI

GID CWA HOURLY WEATHER ROUNDUP
NATIONAL WEATHER SERVICE HASTINGS NE
600 PM CDT MON JUL 27 2015

NOTE: "FAIR" INDICATES FEW OR NO CLOUDS BELOW 12,000 FEET WITH NO
SIGNIFICANT WEATHER AND/OR OBSTRUCTIONS TO VISIBILITY.

...SOUTH CENTRAL NEBRASKA...

CITY           SKY/WX    TMP DP  RH WIND       PRES   REMARKS
GRAND ISLAND   SUNNY     88  72  58 S17G24    29.81F HX  94
HASTINGS       SUNNY     89  73  59 SE15G21   29.81F HX  97
KEARNEY        SUNNY     90  73  58 SE16      29.79F HX  98
ORD            MOSUNNY   89  71  55 SE22G30   29.76F HX  95
YORK           SUNNY     88  73  62 S15       29.83F HX  96
AURORA         SUNNY     87  71  58 SE16      29.82S HX  93
LEXINGTON      MOSUNNY   91  73  55 SE18      29.77F HX  99
HOLDREGE       SUNNY     91  70  51 S15G22    29.79F HX  96
HEBRON         SUNNY     89  72  57 SE12      29.82F HX  96

...NEBRASKA PANHANDLE...

CITY           SKY/WX    TMP DP  RH WIND       PRES   REMARKS
CHADRON        SUNNY     94  62  34 S24G31    29.63F HX  94
ALLIANCE       MOSUNNY   91  65  41 SE17G26   29.73F HX  93
SCOTTSBLUFF    MOSUNNY   94  56  27 S16       29.71F HX  92
SIDNEY         PTSUNNY   96  50  20 S16G24    29.77F HX  93

...WESTERN AND NORTH CENTRAL NEBRASKA...

CITY           SKY/WX    TMP DP  RH WIND       PRES   REMARKS
VALENTINE      SUNNY     92  66  42 S21G26    29.72F HX  94
AINSWORTH      MOSUNNY   91  68  46 S20G26    29.75F HX  94
ONEILL         SUNNY     89  70  52 S22       29.77F HX  94
BROKEN BOW     MOSUNNY   90  72  55 S15G31    29.77F HX  97
IMPERIAL       PTSUNNY   92  67  43 S21G29    29.76F HX  95
NORTH PLATTE   MOSUNNY   91  69  48 S20G30    29.75F HX  96
MCCOOK         MOSUNNY   93  69  45 S17G28    29.75F HX  98

...EASTERN NEBRASKA...

CITY           SKY/WX    TMP DP  RH WIND       PRES   REMARKS
NORFOLK        SUNNY     89  71  55 S20       29.80F HX  95
SO SIOUX CITY  SUNNY     86  74  67 S13       29.82S HX  94
TEKAMAH        MOSUNNY   87  78  74 SE14G21   29.83S HX 100
COLUMBUS       SUNNY     88  72  58 SE8G16    29.81S HX  94
ALBION         SUNNY     87  69  55 S18       29.81F HX  91
OMAHA EPPLEY   PTSUNNY   87  77  72 SE16      29.85R HX  99
OFFUTT AFB     SUNNY     88  75  65 SE14      29.84S HX  97
MILLARD        SUNNY     89  74  61 SE14      29.83F HX  98
LINCOLN        MOSUNNY   91  75  59 S15       29.83F HX 101
NEBRASKA CITY  SUNNY     86  74  67 S10       29.85F HX  94
BEATRICE       PTSUNNY   89  74  62 S9G17     29.83F HX  98
FALLS CITY     SUNNY     90  78  68 S9        29.84F HX 104

...NORTHERN KANSAS...

CITY           SKY/WX    TMP DP  RH WIND       PRES   REMARKS
GOODLAND       MOSUNNY   92  67  43 S23G31    29.81F HX  95
HILL CITY      SUNNY     95  70  44 S21G30    29.78F HX 101
NORTON         PTCLDY    93  64  38 SE21G29   29.77S HX  95
PHILLIPSBURG   SUNNY     95  70  43 SE16G24   29.77F HX 101
SMITH CENTER   SUNNY     93  70  46 S20       29.79F HX  99
HAYS           SUNNY     93  66  40 S25       29.80S HX  96
RUSSELL        SUNNY     93  64  38 S21G29    29.79F HX  94
CONCORDIA      SUNNY     92  73  53 S13       29.81F HX 100
SALINA         SUNNY     97  64  33 S16G24    29.80F HX  99
TOPEKA         SUNNY     95  72  47 S12       29.85S HX 103



USA.gov is the U.S. government's official web portal to all federal, state and local government web resources and services.